Showing default

IRIDIUM 173, 43925

Orbit data source: Space-Track

IRIDIUM 173, 43925 is a payload satellite owned by Iridium (US) in LEO that was launched on Fri, 11 Jan 2019 UTC via an FALCON 9 launch vehicle from the Air Force Western Test Range (AFWTR). Payloads include a variety of satellites, spacecraft, and rockets equipped with specific instruments for various scientific and technological missions. These include communications satellites like Starlink; space stations such as the ISS; scientific satellites like the Hubble; Earth observation satellites from companies like Planet Labs, Umbra, and HawkEye 360; GPS; miniature CubeSats for education and research; and military/defense satellites.

Loading next visibility...
IRIDIUM 173 details
Identifier
43925, 2019-002D
Orbit
LEO
Last TLE update12 hours ago
Origin
Flag of USIridium (US)
ManufacturerNGIS SSG Gilbert
MissionOperational Commercial Communications
Bus & MotorELITEBUS, Unknown motor
Mass860 kg wet, 700 kg dry
Launch date (UTC)
2019-01-11 (6 years ago)
Launch vehicle
FALCON 9
Launch site
Air Force Western Test Range (AFWTR)
Object type
Payload
Rocket body
Debris
Shape & HBRTrap Box + 2 Pan, 9.4 m
Radar Cross Section14.423 m², Large (>1 m²)

Expand to show TLE details & history

TLE from 12 hours ago
0 IRIDIUM 173
1 43925U 19002D   24361.06211607  .00000013  00000-0 -25867-5 0  9992
2 43925  86.3982 218.4156 0001810  83.1121 277.0280 14.34217787311829
Epoch: 2024-12-26T01:29Z
Definitive object data (Epoch: 2024-12-26T01:29:26.828Z)
Latitude-0.00009°
Longitude101.0069°
Altitude780.56 km
Speed7.464 km/s
True Right ascension14h 33m 39s
True Declination0° 00' 00"
Sunlit
Object was in daylight at TLE epoch
Visualization TLE readout
Latitude37.62866°
Longitude-81.97522°
Altitude782.335 km
Speed7.467 km/s
Apparent Right ascension01h 50m 26s
Apparent Declination1° 31' 53"
Sunlit
Object is in full shadow
Visualization observer readout
Local Sidereal Time13:14:08
Azimuth346.444° N
Elevation-47.729°
Doppler factor1
Orbital elements
Apogee altitude775.926 km
Perigee altitude773.337 km
Semi-major axis7,152.768 km
Eccentricity0.000181
Inclination86.3982°
RAAN218.4156°
Arg. of periapsis83.1121°
True anomaly277.00741°
Mean anomaly277.028°
Eccentric anomaly277.01771°
Mean motion3.58783 °/min
BSTAR-0.0000025867
Orbital period100.34 mins
Loading maneuver chart data...
Loading historical data...
Loading historical data...
Loading historical data...
Loading historical data...
Loading historical data...
Loading historical data...
Loading historical data...

IRIDIUM 173 Visibility forecast

Observer location: undefined°, undefined

Span
Click to sort rows by Start time (UTC) header in descending order
Start Az.
Max El. time (UTC)
Max El. Az.
Max El.
End time (UTC)
End Az.
9 mins2024-12-26 14:59:23.932Z166.916° S2024-12-26 15:04:23.932Z83.482° E40.834°2024-12-26 15:08:23.932Z12.686° NNE
4 mins2024-12-27 01:32:23.932Z49.9° ENE2024-12-27 01:34:23.932Z75.359° E14.839°2024-12-27 01:36:23.932Z100.616° ESE
8 mins2024-12-27 03:12:23.932Z342.382° N2024-12-27 03:15:23.932Z275.439° WNW40.406°2024-12-27 03:20:23.932Z193.85° SSW
|